TimeCDT,TemperatureF,Dew PointF,Humidity,Sea Level PressureIn,VisibilityMPH,Wind Direction,Wind SpeedMPH,Gust SpeedMPH,PrecipitationIn,Events,Conditions,WindDirDegrees,DateUTC
12:15 AM,69.6,67.3,92,29.95,10.0,SSE,6.9,-,N/A,,Clear,150,2013-10-04 05:15:00
12:35 AM,69.3,67.1,93,29.96,10.0,SSE,6.9,-,N/A,,Clear,150,2013-10-04 05:35:00
12:55 AM,68.9,67.1,94,29.96,10.0,SSE,5.8,-,N/A,,Clear,150,2013-10-04 05:55:00
1:15 AM,68.7,66.6,93,29.97,10.0,SSE,5.8,-,N/A,,Clear,150,2013-10-04 06:15:00
1:35 AM,68.4,66.4,93,29.98,10.0,SSE,6.9,-,N/A,,Clear,160,2013-10-04 06:35:00
1:55 AM,68.0,66.4,95,29.98,10.0,SSE,5.8,-,N/A,,Clear,150,2013-10-04 06:55:00
2:15 AM,67.6,66.2,95,29.98,10.0,SSE,5.8,-,0.01,,Clear,150,2013-10-04 07:15:00
2:35 AM,67.3,65.8,95,29.98,10.0,SSE,5.8,-,0.01,,Clear,160,2013-10-04 07:35:00
2:55 AM,67.1,65.8,96,29.97,7.0,SSE,5.8,-,0.01,,Clear,160,2013-10-04 07:55:00
3:15 AM,67.1,65.8,96,29.97,10.0,SSE,4.6,-,N/A,,Clear,160,2013-10-04 08:15:00
3:35 AM,66.7,65.7,96,29.96,7.0,SSE,5.8,-,N/A,,Clear,160,2013-10-04 08:35:00
3:55 AM,66.4,65.5,97,29.96,7.0,SSE,5.8,-,N/A,,Clear,160,2013-10-04 08:55:00
4:15 AM,66.4,65.5,97,29.96,7.0,South,6.9,-,N/A,,Clear,170,2013-10-04 09:15:00
4:35 AM,66.2,65.5,98,29.97,7.0,South,8.1,-,N/A,,Clear,170,2013-10-04 09:35:00
4:55 AM,66.2,65.5,98,29.97,7.0,South,6.9,-,N/A,,Clear,170,2013-10-04 09:55:00
5:15 AM,66.2,65.5,98,29.97,5.0,SSE,6.9,-,N/A,,Clear,160,2013-10-04 10:15:00
5:35 AM,66.2,65.5,98,29.98,5.0,South,5.8,-,N/A,,Clear,170,2013-10-04 10:35:00
5:55 AM,65.8,65.3,98,29.98,5.0,South,5.8,-,N/A,,Clear,170,2013-10-04 10:55:00
6:15 AM,65.8,65.5,99,29.99,4.0,SSE,5.8,-,N/A,,Clear,160,2013-10-04 11:15:00
6:35 AM,65.7,65.3,99,29.99,4.0,SSE,4.6,-,N/A,,Clear,160,2013-10-04 11:35:00
6:55 AM,65.5,65.3,99,29.99,2.5,SSE,5.8,-,N/A,,Clear,160,2013-10-04 11:55:00
7:15 AM,65.7,65.5,99,30.00,2.0,SSE,5.8,-,N/A,,Mostly Cloudy,160,2013-10-04 12:15:00
7:35 AM,66.2,65.8,99,30.00,2.0,South,6.9,-,N/A,,Overcast,170,2013-10-04 12:35:00
7:55 AM,66.9,66.7,99,30.00,2.0,South,8.1,-,N/A,,Overcast,170,2013-10-04 12:55:00
8:15 AM,67.3,67.1,99,30.00,1.8,South,10.4,-,N/A,,Overcast,170,2013-10-04 13:15:00
8:35 AM,68.0,67.8,99,30.00,2.5,South,8.1,-,N/A,,Overcast,170,2013-10-04 13:35:00
8:55 AM,69.3,68.4,97,30.00,5.0,SSE,8.1,-,N/A,,Mostly Cloudy,160,2013-10-04 13:55:00
9:15 AM,72.1,68.9,89,30.00,7.0,SSE,10.4,-,N/A,,Clear,160,2013-10-04 14:15:00
9:35 AM,74.5,69.1,83,29.99,10.0,South,15.0,-,N/A,,Clear,190,2013-10-04 14:35:00
9:55 AM,74.7,68.9,82,29.99,10.0,South,11.5,20.7,N/A,,Clear,190,2013-10-04 14:55:00
10:15 AM,76.1,69.3,79,29.99,10.0,South,10.4,16.1,N/A,,Clear,190,2013-10-04 15:15:00
10:35 AM,76.8,69.3,77,29.99,10.0,SSW,10.4,18.4,N/A,,Scattered Clouds,200,2013-10-04 15:35:00
10:55 AM,77.4,69.8,77,29.99,10.0,South,9.2,-,N/A,,Scattered Clouds,190,2013-10-04 15:55:00
11:15 AM,79.7,69.3,70,29.98,10.0,SSW,11.5,16.1,N/A,,Scattered Clouds,200,2013-10-04 16:15:00
11:35 AM,80.6,69.4,69,29.98,10.0,South,5.8,-,N/A,,Scattered Clouds,190,2013-10-04 16:35:00
11:55 AM,82.2,68.7,64,29.98,10.0,SSW,10.4,17.3,N/A,,Scattered Clouds,210,2013-10-04 16:55:00
12:15 PM,82.4,69.1,64,29.98,10.0,South,9.2,-,N/A,,Scattered Clouds,170,2013-10-04 17:15:00
12:35 PM,84.0,68.5,60,29.98,10.0,South,12.7,17.3,N/A,,Scattered Clouds,170,2013-10-04 17:35:00
12:55 PM,84.6,68.9,59,29.98,10.0,South,9.2,18.4,N/A,,Scattered Clouds,180,2013-10-04 17:55:00
1:15 PM,83.5,67.6,59,29.97,10.0,South,6.9,-,N/A,,Scattered Clouds,180,2013-10-04 18:15:00
1:35 PM,84.0,66.9,56,29.96,10.0,South,8.1,-,N/A,,Scattered Clouds,180,2013-10-04 18:35:00
1:55 PM,84.7,67.6,56,29.95,10.0,South,8.1,-,N/A,,Scattered Clouds,170,2013-10-04 18:55:00
2:15 PM,85.3,67.8,56,29.94,10.0,South,10.4,16.1,N/A,,Scattered Clouds,170,2013-10-04 19:15:00
2:35 PM,85.6,67.1,54,29.94,10.0,South,11.5,18.4,N/A,,Scattered Clouds,190,2013-10-04 19:35:00
2:55 PM,84.9,67.6,56,29.93,10.0,South,10.4,16.1,N/A,,Scattered Clouds,170,2013-10-04 19:55:00
3:15 PM,84.7,67.1,55,29.93,10.0,South,13.8,-,N/A,,Scattered Clouds,170,2013-10-04 20:15:00
3:35 PM,83.7,67.8,59,29.93,10.0,South,11.5,18.4,N/A,,Scattered Clouds,170,2013-10-04 20:35:00
3:55 PM,83.3,68.0,60,29.93,10.0,South,12.7,18.4,N/A,,Scattered Clouds,170,2013-10-04 20:55:00
4:15 PM,82.9,67.5,59,29.93,10.0,South,11.5,19.6,N/A,,Scattered Clouds,170,2013-10-04 21:15:00
4:35 PM,83.7,67.6,58,29.93,10.0,South,12.7,21.9,N/A,,Scattered Clouds,170,2013-10-04 21:35:00
4:55 PM,82.8,68.7,62,29.93,10.0,SSE,12.7,18.4,N/A,,Clear,150,2013-10-04 21:55:00
5:15 PM,82.0,68.9,64,29.94,10.0,SSE,12.7,16.1,N/A,,Scattered Clouds,160,2013-10-04 22:15:00
5:35 PM,80.6,68.4,66,29.94,10.0,South,8.1,-,N/A,,Scattered Clouds,170,2013-10-04 22:35:00
5:55 PM,81.0,68.0,65,29.94,10.0,South,9.2,-,N/A,,Scattered Clouds,170,2013-10-04 22:55:00
6:15 PM,79.9,68.0,67,29.94,10.0,South,8.1,-,N/A,,Scattered Clouds,170,2013-10-04 23:15:00
6:35 PM,78.4,67.8,70,29.94,10.0,South,9.2,-,N/A,,Clear,170,2013-10-04 23:35:00
6:55 PM,77.2,67.6,72,29.94,10.0,SSE,9.2,-,N/A,,Clear,160,2013-10-04 23:55:00
7:15 PM,76.1,67.8,75,29.94,10.0,South,9.2,-,N/A,,Clear,170,2013-10-05 00:15:00
7:35 PM,76.1,68.0,76,29.95,10.0,SSE,9.2,-,N/A,,Clear,160,2013-10-05 00:35:00
7:55 PM,75.2,67.8,78,29.95,10.0,SSE,8.1,-,N/A,,Clear,150,2013-10-05 00:55:00
8:15 PM,74.7,68.0,80,29.96,10.0,SE,6.9,-,N/A,,Clear,140,2013-10-05 01:15:00
8:35 PM,74.3,68.0,81,29.96,10.0,South,8.1,-,N/A,,Clear,170,2013-10-05 01:35:00
8:55 PM,73.4,68.0,83,29.97,10.0,South,6.9,-,N/A,,Clear,170,2013-10-05 01:55:00
9:15 PM,73.9,68.4,83,29.97,10.0,South,9.2,-,N/A,,Clear,170,2013-10-05 02:15:00
9:35 PM,73.8,68.5,84,29.97,10.0,South,10.4,16.1,N/A,,Clear,170,2013-10-05 02:35:00
9:55 PM,73.6,68.7,85,29.97,10.0,South,12.7,-,N/A,,Clear,180,2013-10-05 02:55:00
10:15 PM,73.4,68.9,86,29.97,10.0,South,9.2,-,N/A,,Clear,180,2013-10-05 03:15:00
10:35 PM,72.7,68.9,88,29.97,10.0,South,9.2,-,N/A,,Clear,170,2013-10-05 03:35:00
10:55 PM,72.1,68.9,89,29.97,10.0,South,9.2,-,N/A,,Clear,170,2013-10-05 03:55:00
11:15 PM,71.6,68.9,91,29.98,10.0,South,8.1,-,N/A,,Clear,170,2013-10-05 04:15:00
11:35 PM,71.1,68.7,92,29.97,10.0,South,6.9,-,N/A,,Clear,170,2013-10-05 04:35:00
11:55 PM,70.3,68.5,94,29.97,10.0,South,6.9,-,N/A,,Clear,170,2013-10-05 04:55:00